Tracking 19795 objects as of 20-Jul-2019
HD Live streaming from Space Station
objects crossing your sky now

FENGYUN 1C DEB

Track FENGYUN 1C DEB now!
10-day predictions


NORAD ID: 32433
Int'l Code: 1999-025DAV
Perigee: 595.7 km
Apogee: 998.7 km
Inclination: 98.2 °
Period: 100.7 minutes
Semi major axis: 7168 km
RCS: 0.0139 m2 (small)
Launch date: May 10, 1999
Source: People's Republic of China (PRC)
Launch site: Taiyaun Space Center, China (TSC)

Note: This is SATELLITE DEBRIS
aabbcc
Your satellite tracking list
Your tracking list is empty




NASA's NSSDC Master Catalog

Two Line Element Set (TLE):
1 32433U 99025DAV 19199.25769706  .00000610  00000-0  16404-3 0  9996
2 32433  98.2140 223.1486 0281117  61.2872 301.6256 14.30501443599497
Source of the keplerian elements: AFSPC